[Iaude] MPEC J114: 2019 UK176 [a=1.65,e=0.49,i=20.8,H=25.7]

mpec at cfa.harvard.edu mpec at cfa.harvard.edu
Tue May 7 12:53:53 EDT 2024


M.P.E.C. 2024-J114                                  Issued 2024 May 7, 16:52 UT

     The Minor Planet Electronic Circulars contain information on unusual
         minor planets, routine data on comets and natural satellites,
         and occasional editorial announcements.  They are published
    on behalf of Division F of the International Astronomical Union by the
          Minor Planet Center, Smithsonian Astrophysical Observatory,
                          Cambridge, MA 02138, U.S.A.
			  
             Prepared using the Tamkin Foundation Computer Network

                              MPC at CFA.HARVARD.EDU
            URL https://www.minorplanetcenter.net/    ISSN 1523-6714

                                   2019 UK176                                   


Observations:
     K19UH6K* C2019 10 29.42347 04 59 35.72 -04 47 27.9          19.7 GVEJ114G96
     K19UH6K  C2019 10 29.43374 04 59 07.14 -04 35 40.9          19.8 GVEJ114G96
     K19UH6K  C2019 10 29.45643 04 58 04.70 -04 09 48.2          19.1 GVEJ114I52
     K19UH6K  C2019 10 29.45720 04 58 02.56 -04 08 55.8          19.0 GVEJ114I52
     K19UH6K  C2019 10 29.45798 04 58 00.43 -04 08 02.9          18.8 GVEJ114I52
     K19UH6K  C2019 10 29.45876 04 57 58.34 -04 07 10.3          19.2 GVEJ114I52
     K19UH6K KC2019 10 30.86019 04 06 09.30 +17 52 57.4          19.2 VqEJ114C43
     K19UH6K KC2019 10 30.86226 04 06 05.38 +17 54 27.6          19.2 VqEJ114C43
     K19UH6K KC2019 10 30.86432 04 06 01.46 +17 55 57.5          19.2 VqEJ114C43
     K19UH6K KC2019 10 30.86639 04 05 57.51 +17 57 27.3          19.3 VqEJ114C43
     K19UH6K KC2019 10 30.86845 04 05 53.54 +17 58 57.1          19.3 VqEJ114C43

Observer details:
C43 Hoyerswerda.  Observer P. Lindner.  0.30-m f/6.3 Schmidt-Cassegrain + CCD.
G96 Mt. Lemmon Survey.  Observer R. A. Kowalski.  Measurers E. J. Christensen,
    G. A. Farneth, D. C. Fuls, A. R. Gibbs, A. D. Grauer, H. Groeller, R. A.
    Kowalski, S. M. Larson, G. J. Leonard, T. A. Pruyne, D. Rankin, R. L.
    Seaman, F. C. Shelly, K. W. Wierzchos.  1.5-m reflector + 10K CCD.
I52 Steward Observatory, Mt. Lemmon Station.  Observer T. A. Pruyne.
    Measurers E. J. Christensen, G. A. Farneth, D. C. Fuls, A. R. Gibbs, A. D.
    Grauer, H. Groeller, R. A. Kowalski, S. M. Larson, G. J. Leonard, T. A.
    Pruyne, D. Rankin, R. L. Seaman, F. C. Shelly, K. W. Wierzchos.  1.0-m
    reflector + CCD.

Orbital elements:
2019 UK176                                               Earth MOID = 0.0203 AU
Epoch 2024 Mar. 31.0 TT = JDT 2460400.5                 Veres                   
M  51.28740              (2000.0)            P               Q                  
n   0.46492200     Peri.  297.19525     +0.87066431     +0.44100007             
a   1.6502484      Node    37.79916     -0.21995092     +0.74522487             
e   0.4918821      Incl.   20.82157     -0.43996052     +0.50015881             
P   2.12           H   25.78          G   0.15           U   9                  
Residuals in seconds of arc
191029 G96  2.8+  2.6-    191029 I52  0.1-  0.3-    191030 C43  0.3+  0.1+
191029 G96  0.0   0.0     191029 I52  0.7+  1.0-    191030 C43  0.4+  0.6-
191029 I52  0.2+  0.2+    191030 C43  0.7-  0.9+    191030 C43  0.0   0.8-
191029 I52  0.2-  0.1+    191030 C43  0.0   0.4+

Ephemeris:
2019 UK176               a,e,i = 1.65, 0.49, 21                  q = 0.8385
Date    TT    R. A. (2000) Decl.     Delta      r    Elong.  Phase     V
2024 04 07    03 36 00.7 +31 05 53   2.1164  1.5440    43.0    26.3    29.5
...
2024 04 22    04 22 29.6 +33 57 32   2.2983  1.6459    39.1    22.7    29.8
...
2024 04 30    04 46 47.9 +35 01 47   2.3930  1.6979    36.8    20.8    29.9
...
2024 05 06    05 04 46.2 +35 38 46   2.4624  1.7357    35.0    19.5    29.9
2024 05 07    05 07 44.6 +35 44 03   2.4738  1.7419    34.7    19.3    29.9
2024 05 08    05 10 42.5 +35 49 05   2.4851  1.7481    34.4    19.0    29.9
...
2024 05 14    05 28 21.1 +36 14 21   2.5519  1.7847    32.5    17.7    30.0
...
2024 05 22    05 51 25.9 +36 35 34   2.6375  1.8318    30.0    16.0    30.1
...
2024 06 06    06 33 11.6 +36 41 13   2.7855  1.9154    25.1    13.0    30.2

M. P. C. Staff               (C) Copyright 2024 MPC           M.P.E.C. 2024-J114





More information about the Iaude mailing list